EW5035 Weather Reports


Display with metric or nautical units.
time (UTC)temp
F
wind
direction
speed
MPH
gust
MPH
rain 1hr
in
rain 24hr
in
rain mn
in
humidity
%
barometer
mb
20260905213534 68 117 3.0 10.0 0.00 0.00 0.00 47 1017.1
20260905213058 68 117 7.0 10.0 0.00 0.00 0.00 48 1017.1
20260905212532 68 117 5.0 12.0 0.00 0.00 0.00 47 1017.0
20260905212034 68 117 8.0 13.0 0.00 0.00 0.00 48 1017.1
20260905211609 68 117 7.0 13.0 0.00 0.00 0.00 47 1017.2
20260905211034 68 117 7.0 12.0 0.00 0.00 0.00 47 1017.0
20260905210535 68 117 7.0 12.0 0.00 0.00 0.00 48 1017.1
20260905210103 68 117 5.0 12.0 0.00 0.00 0.00 48 1017.0
20260905205535 68 117 1.0 6.0 0.00 0.00 0.00 47 1016.9
20260905205035 68 117 3.0 9.0 0.00 0.00 0.00 47 1017.0
20260905204611 68 117 2.0 11.0 0.00 0.00 0.00 47 1017.0
20260905204121 68 117 6.0 11.0 0.00 0.00 0.00 47 1016.9
20260905203537 68 117 5.0 11.0 0.00 0.00 0.00 46 1016.9
20260905203113 68 117 4.0 12.0 0.00 0.00 0.00 46 1016.8
20260905202536 68 117 5.0 12.0 0.00 0.00 0.00 46 1016.9
20260905202034 70 117 7.0 12.0 0.00 0.00 0.00 45 1016.8
20260905201605 69 117 4.0 12.0 0.00 0.00 0.00 46 1016.8
20260905201038 69 117 8.0 12.0 0.00 0.00 0.00 45 1016.9
20260905200531 69 117 2.0 7.0 0.00 0.00 0.00 48 1016.9
20260905200110 68 117 2.0 12.0 0.00 0.00 0.00 48 1017.0
20260905195535 68 0 4.0 12.0 0.00 0.00 0.00 49 1017.1
20260905195033 68 117 7.0 11.0 0.00 0.00 0.00 48 1017.0
20260905194607 68 117 4.0 10.0 0.00 0.00 0.00 48 1017.0
20260905194037 68 117 2.0 9.0 0.00 0.00 0.00 48 1017.1
20260905193533 67 117 2.0 13.0 0.00 0.00 0.00 50 1017.2
20260905193100 67 117 8.0 13.0 0.00 0.00 0.00 49 1017.2
20260905192536 66 101 4.0 9.0 0.00 0.00 0.00 50 1017.3
20260905192034 66 0 2.0 9.0 0.00 0.00 0.00 50 1017.3
20260905191556 66 101 5.0 9.0 0.00 0.00 0.00 50 1017.3
20260905191036 66 101 3.0 7.0 0.00 0.00 0.00 52 1017.4
20260905190533 65 101 4.0 12.0 0.00 0.00 0.00 53 1017.4
20260905190054 65 101 6.0 12.0 0.00 0.00 0.00 53 1017.4
20260905185534 66 90 4.0 9.0 0.00 0.00 0.00 52 1017.4
20260905185033 65 0 2.0 12.0 0.00 0.00 0.00 53 1017.6
20260905184555 65 90 7.0 12.0 0.00 0.00 0.00 54 1017.7
20260905184030 64 90 1.0 11.0 0.00 0.00 0.00 56 1017.8
20260905183535 64 90 7.0 11.0 0.00 0.00 0.00 55 1017.7
20260905183056 64 90 5.0 11.0 0.00 0.00 0.00 56 1017.8
20260905182534 64 90 4.0 10.0 0.00 0.00 0.00 58 1017.8
20260905182034 63 90 3.0 10.0 0.00 0.00 0.00 58 1018.0
20260905181555 63 84 3.0 9.0 0.00 0.00 0.00 58 1017.9
20260905181034 63 84 4.0 10.0 0.00 0.00 0.00 58 1017.9
20260905180534 63 84 5.0 10.0 0.00 0.00 0.00 58 1017.9
20260905175535 63 0 1.0 8.0 0.00 0.00 0.00 59 1017.8
20260905175036 62 81 4.0 8.0 0.00 0.00 0.00 60 1017.8
20260905174603 62 81 4.0 8.0 0.00 0.00 0.00 60 1017.9
20260905174033 62 81 4.0 8.0 0.00 0.00 0.00 60 1017.9
20260905173549 62 81 2.0 5.0 0.00 0.00 0.00 61 1017.9
20260905173104 61 0 0.0 3.0 0.00 0.00 0.00 62 1017.8
20260905172535 61 81 0.0 3.0 0.00 0.00 0.00 63 1017.9
20260905172038 60 0 0.0 8.0 0.00 0.00 0.00 64 1017.8
20260905171557 60 81 1.0 8.0 0.00 0.00 0.00 64 1017.8
20260905171034 60 81 3.0 8.0 0.00 0.00 0.00 64 1017.8
20260905170531 60 81 2.0 7.0 0.00 0.00 0.00 66 1017.8
20260905170052 59 81 2.0 9.0 0.00 0.00 0.00 66 1017.8
20260905165533 59 81 4.0 9.0 0.00 0.00 0.00 66 1017.8
20260905165031 59 81 3.0 8.0 0.00 0.00 0.00 67 1017.8
20260905164552 59 81 3.0 7.0 0.00 0.00 0.00 68 1017.9
20260905164035 59 81 3.0 8.0 0.00 0.00 0.00 67 1018.0
20260905163533 59 81 5.0 9.0 0.00 0.00 0.00 68 1017.9
20260905163059 59 81 5.0 9.0 0.00 0.00 0.00 67 1017.8
20260905162535 59 81 4.0 9.0 0.00 0.00 0.00 68 1017.8
20260905162034 58 81 0.0 2.0 0.00 0.00 0.00 68 1017.7
20260905161558 58 0 0.0 2.0 0.00 0.00 0.00 68 1017.6
20260905161034 58 0 0.0 3.0 0.00 0.00 0.00 68 1017.8
20260905160534 57 0 0.0 3.0 0.00 0.00 0.00 69 1017.8
20260905160052 57 0 1.0 3.0 0.00 0.00 0.00 69 1017.8
20260905155531 57 80 0.0 4.0 0.00 0.00 0.00 69 1017.9
20260905155033 57 80 0.0 4.0 0.00 0.00 0.00 71 1017.8
20260905154556 56 0 1.0 5.0 0.00 0.00 0.00 72 1017.7
20260905154039 56 80 2.0 6.0 0.00 0.00 0.00 72 1017.7
20260905153536 55 80 3.0 7.0 0.00 0.00 0.00 74 1017.5
20260905153057 55 80 2.0 10.0 0.00 0.00 0.00 75 1017.4
20260905152535 55 80 5.0 10.0 0.00 0.00 0.00 76 1017.3
20260905152034 54 80 3.0 5.0 0.00 0.00 0.00 77 1017.2
20260905151559 54 0 1.0 5.0 0.00 0.00 0.00 78 1017.2
20260905151035 53 0 0.0 3.0 0.00 0.00 0.00 80 1017.3
20260905150534 53 80 1.0 3.0 0.00 0.00 0.00 80 1017.4
20260905150051 53 0 0.0 2.0 0.00 0.00 0.00 81 1017.4
20260905145535 52 0 0.0 3.0 0.00 0.00 0.00 81 1017.3
20260905145034 52 80 1.0 4.0 0.00 0.00 0.00 81 1017.4
20260905144552 52 80 1.0 4.0 0.00 0.00 0.00 80 1017.5
20260905144037 52 80 2.0 4.0 0.00 0.00 0.00 80 1017.7
20260905143537 52 80 2.0 4.0 0.00 0.00 0.00 80 1017.5
20260905143059 52 80 2.0 4.0 0.00 0.00 0.00 81 1017.5
20260905142537 52 80 3.0 4.0 0.00 0.00 0.00 81 1017.5
20260905142034 52 0 0.0 2.0 0.00 0.00 0.00 81 1017.6
20260905141554 52 0 0.0 2.0 0.00 0.00 0.00 80 1017.7
20260905141034 52 80 1.0 2.0 0.00 0.00 0.00 80 1017.5
20260905140534 52 80 0.0 7.0 0.00 0.00 0.00 81 1017.5
20260905140050 52 0 2.0 7.0 0.00 0.00 0.00 80 1017.5
20260905135538 52 80 1.0 7.0 0.00 0.00 0.00 80 1017.4
20260905135034 51 80 1.0 10.0 0.00 0.00 0.00 80 1017.3
20260905134558 51 80 3.0 10.0 0.00 0.00 0.00 81 1017.4
20260905134034 51 80 7.0 10.0 0.00 0.00 0.00 80 1017.4
20260905133535 51 80 3.0 5.0 0.00 0.00 0.00 81 1017.3
20260905133054 50 80 0.0 3.0 0.00 0.00 0.00 81 1017.2
20260905132534 50 80 1.0 5.0 0.00 0.00 0.00 81 1017.2
20260905132038 50 80 2.0 5.0 0.00 0.00 0.00 81 1017.1
20260905131550 50 80 2.0 5.0 0.00 0.00 0.00 80 1016.8
20260905131034 50 80 2.0 4.0 0.00 0.00 0.00 80 1016.8
20260905130535 50 0 0.0 0.0 0.00 0.00 0.00 80 1017.0
20260905130051 50 0 0.0 0.0 0.00 0.00 0.00 80 1017.0
20260905125534 50 0 0.0 0.0 0.00 0.00 0.00 79 1016.8
20260905125034 50 0 0.0 0.0 0.00 0.00 0.00 79 1016.8
20260905124551 50 0 0.0 0.0 0.00 0.00 0.00 79 1016.8
20260905124033 51 0 0.0 0.0 0.00 0.00 0.00 78 1016.7
20260905123534 51 0 0.0 3.0 0.00 0.00 0.00 78 1016.7
20260905123059 51 0 0.0 3.0 0.00 0.00 0.00 78 1016.6
20260905122535 51 80 1.0 3.0 0.00 0.00 0.00 78 1016.7
20260905122034 51 0 1.0 3.0 0.00 0.00 0.00 78 1016.7
20260905121552 51 80 0.0 3.0 0.00 0.00 0.00 78 1016.6
20260905121035 51 0 0.0 8.0 0.00 0.00 0.00 79 1016.6
20260905120534 51 80 2.0 8.0 0.00 0.00 0.00 79 1016.4
20260905120050 51 80 4.0 7.0 0.00 0.00 0.00 80 1016.3
20260905115534 50 80 0.0 4.0 0.00 0.00 0.00 80 1016.2
20260905115034 50 0 0.0 5.0 0.00 0.00 0.00 79 1016.2
20260905114558 50 0 1.0 5.0 0.00 0.00 0.00 79 1016.1
20260905114035 51 80 1.0 5.0 0.00 0.00 0.00 80 1016.4
20260905113535 50 80 0.0 2.0 0.00 0.00 0.00 79 1016.3
20260905113053 50 80 0.0 3.0 0.00 0.00 0.00 79 1016.2
20260905112534 50 0 0.0 3.0 0.00 0.00 0.00 79 1016.2
20260905112035 51 0 2.0 3.0 0.00 0.00 0.00 78 1016.3
20260905111552 51 80 1.0 3.0 0.00 0.00 0.00 77 1016.3
20260905111033 51 80 0.0 2.0 0.00 0.00 0.00 77 1016.4
20260905110534 51 0 0.0 2.0 0.00 0.00 0.00 77 1016.4
20260905110106 51 80 1.0 5.0 0.00 0.00 0.00 77 1016.4
20260905105534 51 0 1.0 7.0 0.00 0.00 0.00 77 1016.4
20260905105037 51 80 4.0 7.0 0.00 0.00 0.00 77 1016.4
20260905104558 51 80 0.0 5.0 0.00 0.00 0.00 77 1016.4
20260905104038 51 80 4.0 5.0 0.00 0.00 0.00 76 1016.2
20260905103537 52 80 3.0 5.0 0.00 0.00 0.00 75 1016.1
20260905103055 52 80 2.0 5.0 0.00 0.00 0.00 75 1016.0
20260905102535 52 80 3.0 5.0 0.00 0.00 0.00 75 1016.2
20260905102031 52 80 1.0 4.0 0.00 0.00 0.00 74 1016.2
20260905101603 52 80 1.0 3.0 0.00 0.00 0.00 73 1016.2
20260905101034 53 0 0.0 7.0 0.00 0.00 0.00 74 1016.3
20260905100536 52 0 0.0 14.0 0.00 0.00 0.00 74 1016.4
20260905100051 53 80 2.0 14.0 0.00 0.00 0.00 74 1016.3
20260905095535 52 70 3.0 11.0 0.00 0.00 0.00 74 1016.5
20260905095035 52 0 0.0 4.0 0.00 0.00 0.00 75 1016.2
20260905094551 52 0 0.0 4.0 0.00 0.00 0.00 74 1016.0
20260905094034 52 54 1.0 4.0 0.00 0.00 0.00 74 1015.9
20260905093535 52 0 0.0 4.0 0.00 0.00 0.00 74 1015.9
20260905093057 52 0 1.0 4.0 0.00 0.00 0.00 74 1015.9
20260905092533 53 54 2.0 4.0 0.00 0.00 0.00 73 1015.8
20260905092034 53 54 2.0 5.0 0.00 0.00 0.00 73 1015.8
20260905091602 53 54 1.0 5.0 0.00 0.00 0.00 73 1015.8
20260905091035 53 54 3.0 7.0 0.00 0.00 0.00 72 1015.7
20260905090537 54 54 3.0 7.0 0.00 0.00 0.00 72 1015.8
20260905090049 54 54 4.0 7.0 0.00 0.00 0.00 72 1015.8
20260905085539 54 54 4.0 7.0 0.00 0.00 0.00 72 1015.8
20260905085034 53 54 4.0 7.0 0.00 0.00 0.00 72 1015.7
20260905084549 54 54 3.0 7.0 0.00 0.00 0.00 71 1015.8
20260905084034 54 54 2.0 10.0 0.00 0.00 0.00 71 1015.8
20260905083534 54 54 4.0 10.0 0.00 0.00 0.00 71 1015.7
20260905083053 54 54 6.0 10.0 0.00 0.00 0.00 71 1015.7
20260905082534 54 54 6.0 10.0 0.00 0.00 0.00 70 1015.6
20260905082035 54 54 5.0 10.0 0.00 0.00 0.00 70 1015.5
20260905081550 54 54 4.0 9.0 0.00 0.00 0.00 70 1015.6
20260905081036 54 54 3.0 7.0 0.00 0.00 0.00 70 1015.7
20260905080534 54 54 3.0 9.0 0.00 0.00 0.00 70 1015.7
20260905080052 54 54 4.0 9.0 0.00 0.00 0.00 70 1015.8
20260905075534 54 54 5.0 9.0 0.00 0.00 0.00 69 1015.7
20260905075035 53 54 3.0 7.0 0.00 0.00 0.00 70 1015.7
20260905074558 53 0 0.0 3.0 0.00 0.00 0.00 68 1015.6
20260905074034 54 54 2.0 5.0 0.00 0.00 0.00 67 1015.6
20260905073536 54 54 2.0 5.0 0.00 0.00 0.00 67 1015.5
20260905073053 54 54 2.0 5.0 0.00 0.00 0.00 66 1015.5
20260905072535 55 0 2.0 5.0 0.00 0.00 0.00 66 1015.3
20260905072037 55 0 0.0 2.0 0.00 0.00 0.00 66 1015.3
20260905071551 55 0 0.0 2.0 0.00 0.00 0.00 66 1015.3
20260905071035 55 0 0.0 4.0 0.00 0.00 0.00 66 1015.2
20260905070534 55 54 0.0 7.0 0.00 0.00 0.00 65 1015.1
20260905070116 55 54 2.0 7.0 0.00 0.00 0.00 65 1015.0
20260905065535 55 54 3.0 6.0 0.00 0.00 0.00 64 1014.9
20260905065038 55 54 4.0 7.0 0.00 0.00 0.00 64 1014.9
20260905064556 55 54 3.0 7.0 0.00 0.00 0.00 64 1014.9
20260905064034 56 54 5.0 9.0 0.00 0.00 0.00 63 1014.9
20260905063535 56 54 6.0 9.0 0.00 0.00 0.00 63 1014.8
20260905063057 56 54 5.0 7.0 0.00 0.00 0.00 64 1014.9
20260905062534 55 54 3.0 6.0 0.00 0.00 0.00 63 1014.8
20260905062039 56 54 1.0 5.0 0.00 0.00 0.00 63 1014.8
20260905061608 56 54 2.0 5.0 0.00 0.00 0.00 62 1014.9
20260905061034 56 54 1.0 4.0 0.00 0.00 0.00 62 1014.9
20260905060534 56 54 2.0 4.0 0.00 0.00 0.00 62 1014.7
20260905060101 56 54 1.0 5.0 0.00 0.00 0.00 61 1014.7
20260905055535 56 54 2.0 5.0 0.00 0.00 0.00 62 1014.7
20260905055034 56 54 1.0 4.0 0.00 0.00 0.00 62 1014.7
20260905054558 55 0 0.0 3.0 0.00 0.00 0.00 61 1014.7
20260905054034 56 54 1.0 3.0 0.00 0.00 0.00 61 1014.7
20260905053531 56 54 2.0 4.0 0.00 0.00 0.00 61 1014.8
20260905053051 56 54 1.0 5.0 0.00 0.00 0.00 61 1014.7
20260905052537 56 54 2.0 5.0 0.00 0.00 0.00 61 1014.8
20260905052035 56 54 3.0 6.0 0.00 0.00 0.00 61 1014.9
20260905051551 55 54 3.0 6.0 0.00 0.00 0.00 60 1014.8
20260905051034 55 54 3.0 5.0 0.00 0.00 0.00 60 1014.8
20260905050535 56 54 3.0 6.0 0.00 0.00 0.00 58 1014.8
20260905050051 56 54 4.0 9.0 0.00 0.00 0.00 58 1014.7
20260905045534 57 54 4.0 9.0 0.00 0.00 0.00 58 1014.8
20260905045034 57 54 5.0 9.0 0.00 0.00 0.00 58 1014.9
20260905044605 57 54 5.0 10.0 0.00 0.00 0.00 56 1014.9
20260905044036 57 54 6.0 10.0 0.00 0.00 0.00 56 1014.9
20260905043535 57 54 5.0 7.0 0.00 0.00 0.00 57 1015.0
20260905043053 56 54 2.0 4.0 0.00 0.00 0.00 56 1015.0
20260905042535 57 0 0.0 7.0 0.00 0.00 0.00 54 1015.0
20260905042035 57 54 2.0 7.0 0.00 0.00 0.00 54 1015.1
20260905041553 57 54 5.0 7.0 0.00 0.00 0.00 54 1014.9
20260905041036 57 54 2.0 6.0 0.00 0.00 0.00 54 1015.1
20260905040534 56 54 2.0 5.0 0.00 0.00 0.00 54 1015.1
20260905040054 57 54 0.0 5.0 0.00 0.00 0.00 53 1015.2
20260905035535 57 54 2.0 7.0 0.00 0.00 0.00 53 1015.1
20260905035034 57 54 4.0 7.0 0.00 0.00 0.00 52 1015.0
20260905034554 57 54 4.0 7.0 0.00 0.00 0.00 52 1015.0
20260905034034 57 54 3.0 5.0 0.00 0.00 0.00 53 1015.0
20260905033534 57 54 1.0 4.0 0.00 0.00 0.00 53 1015.1
20260905033051 57 54 2.0 5.0 0.00 0.00 0.00 52 1015.1
20260905032535 57 0 2.0 5.0 0.00 0.00 0.00 52 1015.2
20260905032034 58 54 2.0 5.0 0.00 0.00 0.00 51 1015.1
20260905031555 58 54 2.0 5.0 0.00 0.00 0.00 51 1015.0
20260905031035 59 54 3.0 5.0 0.00 0.00 0.00 50 1015.1
20260905030534 59 54 2.0 6.0 0.00 0.00 0.00 49 1015.0
20260905030049 60 54 2.0 6.0 0.00 0.00 0.00 48 1015.0
20260905025534 60 54 3.0 6.0 0.00 0.00 0.00 48 1015.0
20260905025034 61 54 3.0 5.0 0.00 0.00 0.00 47 1014.9
20260905024603 61 54 1.0 4.0 0.00 0.00 0.00 47 1014.9
20260905024034 62 54 2.0 4.0 0.00 0.00 0.00 46 1014.8
20260905023536 62 54 1.0 4.0 0.00 0.00 0.00 45 1014.8
20260905023053 63 54 2.0 4.0 0.00 0.00 0.00 44 1014.7
20260905022534 64 54 2.0 4.0 0.00 0.00 0.00 43 1014.7
20260905022035 65 54 2.0 4.0 0.00 0.00 0.00 41 1014.7
20260905021557 66 54 2.0 4.0 0.00 0.00 0.00 40 1014.6
20260905021034 66 54 2.0 5.0 0.00 0.00 0.00 40 1014.5
20260905020534 67 54 2.0 5.0 0.00 0.00 0.00 39 1014.5
20260905020059 67 54 2.0 6.0 0.00 0.00 0.00 38 1014.5
20260905015534 68 54 2.0 7.0 0.00 0.00 0.00 38 1014.4
20260905015034 68 54 4.0 7.0 0.00 0.00 0.00 37 1014.4
20260905014559 69 54 4.0 10.0 0.00 0.00 0.00 36 1014.3
20260905014035 69 54 6.0 10.0 0.00 0.00 0.00 36 1014.2
20260905013539 69 54 5.0 9.0 0.00 0.00 0.00 36 1014.2
20260905013059 69 54 4.0 9.0 0.00 0.00 0.00 35 1014.2
20260905012537 69 54 4.0 9.0 0.00 0.00 0.00 35 1014.2
20260905012035 70 54 3.0 13.0 0.00 0.00 0.00 35 1014.2
20260905011551 69 54 5.0 13.0 0.00 0.00 0.00 35 1014.2
20260905011036 70 54 9.0 13.0 0.00 0.00 0.00 35 1014.1
20260905010536 70 54 8.0 13.0 0.00 0.00 0.00 35 1014.1
20260905010049 70 54 8.0 18.0 0.00 0.00 0.00 35 1014.0
20260905005534 70 54 6.0 18.0 0.00 0.00 0.00 36 1014.1
20260905005034 70 59 7.0 18.0 0.00 0.00 0.00 36 1014.0
20260905004609 70 59 5.0 10.0 0.00 0.00 0.00 35 1014.0
20260905004035 70 59 5.0 14.0 0.00 0.00 0.00 35 1014.1
20260905003535 70 59 7.0 14.0 0.00 0.00 0.00 35 1014.1
20260905003056 70 65 5.0 14.0 0.00 0.00 0.00 35 1014.0
20260905002534 70 67 2.0 13.0 0.00 0.00 0.00 35 1014.0
20260905002035 71 67 8.0 13.0 0.00 0.00 0.00 35 1014.1
20260905001552 70 67 8.0 13.0 0.00 0.00 0.00 35 1014.0
20260905001034 70 67 5.0 10.0 0.00 0.00 0.00 35 1013.9
20260905000535 70 67 5.0 10.0 0.00 0.00 0.00 36 1013.9
20260904235534 70 67 4.0 10.0 0.00 0.00 0.00 35 1014.0
20260904235038 70 67 6.0 10.0 0.00 0.00 0.00 36 1014.1
20260904234600 70 67 3.0 10.0 0.00 0.00 0.00 36 1014.0
20260904234035 70 67 5.0 11.0 0.00 0.00 0.00 36 1014.0
20260904233535 70 67 6.0 14.0 0.00 0.00 0.00 36 1014.0
20260904233054 70 67 7.0 15.0 0.00 0.00 0.00 37 1014.0
20260904232535 70 72 10.0 15.0 0.00 0.00 0.00 37 1014.0
20260904232035 69 98 3.0 8.0 0.00 0.00 0.00 36 1014.0
20260904231553 69 98 2.0 9.0 0.00 0.00 0.00 36 1014.1
20260904231035 69 98 5.0 12.0 0.00 0.00 0.00 37 1014.1
20260904230535 69 98 6.0 12.0 0.00 0.00 0.00 36 1014.1
20260904230112 70 102 6.0 13.0 0.00 0.00 0.00 37 1014.2
20260904225538 70 102 7.0 13.0 0.00 0.00 0.00 37 1014.1
20260904225034 70 113 6.0 12.0 0.00 0.00 0.00 37 1014.1
20260904224550 70 113 6.0 12.0 0.00 0.00 0.00 37 1014.1
20260904224036 69 119 2.0 11.0 0.00 0.00 0.00 38 1014.1
20260904223536 68 125 7.0 11.0 0.00 0.00 0.00 38 1014.3
20260904223055 68 126 7.0 13.0 0.00 0.00 0.00 38 1014.2
20260904222535 68 126 6.0 13.0 0.00 0.00 0.00 39 1014.3
20260904222035 69 126 7.0 13.0 0.00 0.00 0.00 38 1014.3
20260904221550 69 134 1.0 11.0 0.00 0.00 0.00 40 1014.2
20260904221035 68 134 4.0 11.0 0.00 0.00 0.00 40 1014.4
20260904220535 69 134 3.0 11.0 0.00 0.00 0.00 39 1014.4
20260904220050 68 134 5.0 8.0 0.00 0.00 0.00 39 1014.4
20260904215536 69 134 3.0 7.0 0.00 0.00 0.00 39 1014.4
20260904215035 69 0 1.0 5.0 0.00 0.00 0.00 40 1014.4
20260904214559 68 134 1.0 7.0 0.00 0.00 0.00 40 1014.4
20260904214036 68 0 3.0 7.0 0.00 0.00 0.00 39 1014.4